Location: Byszew
(52.1813°N, 19.2693°E)
Time: 17:28:31
(UTC+00:00)

Meteor 1-11 Rocket - Pass Details

Date: 03 March 2021
Orbit: 831 x 916 km, 81.2° (Epoch: 17 April)

Event Time Altitude Azimuth Distance (km) Brightness Sun altitude
Rises 19:25:32 0° 207° (SSW) 3,459 6.9 -27.5°
Reaches altitude 10° 19:28:04 10° 212° (SSW) 2,512 6.2 -27.9°
Maximum altitude 19:33:37 53° 289° (WNW) 1,052 4.4 -28.6°
Drops below altitude 10° 19:39:06 10° 6° (N) 2,477 6.4 -29.3°
Sets 19:41:35 0° 11° (N) 3,407 7.1 -29.7°
